Flag for Poland Weather past 2 weeks in Kraków, Poland

Now
77 °F

Scattered clouds.


Feels Like: 79 °F
Forecast: 62 / 86 °F
Wind: 3 mph from East

Location: Krakow Airport

Current Time: Aug 1, 2014 at 4:57:13 PM

Latest Report: Aug 1, 2014 at 4:30 PM


Visibility: N/A

Pressure: 29.92 "Hg

Humidity: 79%

Dew point: 70 °F

Location of KrakówLocation

Historic Weather in Kraków — Graph

°F

Kraków temperature yesterday

Maximum temperature yesterday: 81 °F (at 11:30 AM)
Minimum temperature yesterday: 63 °F (at 4:30 AM)
Average temperature yesterday: 71 °F

Past Weeks' High & Low Weather Summary

 TemperatureHumidityPressure
High88 °F (Jul 20, 3:30 PM)100% (Jul 18, 4:00 AM)30.15 "Hg (Jul 18, 4:00 AM)
Low57 °F (Jul 26, 4:00 AM)35% (Jul 20, 4:30 PM)29.77 "Hg (Jul 24, 6:30 AM)
Average71 °F78%29.93 "Hg
* Reported Jul 17 3:00 PM — Aug 1 3:30 PM, Kraków, Weather by CustomWeather, © 2014

Note: Actual official high and low records may vary slightly from our data, if they occured in-between our weather recording intervals... More about our weather records

Advertising

Kraków weather history for previous 24 hours

 ConditionsComfort  
Time TempWeatherWind HumidityBarometerVisibility
3:30 PM
Aug 1
75 °FPartly sunny.3 mph78%29.92 "HgN/A
3:00 PM77 °FPartly sunny.3 mph74%29.92 "HgN/A
2:30 PM77 °FPartly sunny.3 mph79%29.92 "HgN/A
2:00 PM75 °FPartly sunny.2 mph78%29.92 "HgN/A
1:30 PM77 °FPartly sunny.1 mph74%29.92 "HgN/A
1:00 PM75 °FPartly sunny.1 mph78%29.92 "Hg5 mi
12:30 PM73 °FPartly sunny.1 mph83%29.92 "Hg4 mi
12:00 PM72 °FFog.1 mph94%29.92 "Hg3 mi
11:30 AM70 °FFog.1 mph100%29.95 "Hg2 mi
11:00 AM70 °FFog.2 mph94%29.95 "Hg2 mi
10:30 AM70 °FFog.2 mph94%29.95 "Hg2 mi
10:00 AM70 °FFog.1 mph94%29.92 "Hg2 mi
9:30 AM68 °FFog.2 mph100%29.92 "Hg1 mi
9:00 AM68 °FFog.3 mph100%29.92 "Hg1 mi
8:30 AM68 °FFog.5 mph100%29.92 "Hg1 mi
8:00 AM68 °FFog.5 mph100%29.92 "Hg1 mi
7:30 AM68 °FFog.5 mph100%29.92 "Hg1 mi
7:00 AM68 °FFog.1 mph100%29.92 "Hg1 mi
6:30 AM68 °FFog.No wind100%29.92 "Hg1 mi
6:00 AM68 °FFog.1 mph100%29.92 "Hg1 mi
5:30 AM68 °FFog.No wind100%29.92 "Hg1 mi
5:00 AM68 °FFog.No wind100%29.92 "Hg2 mi
4:30 AM68 °FFog.1 mph100%29.92 "Hg1 mi
4:00 AM68 °FFog.1 mph100%29.92 "Hg1 mi
3:30 AM68 °FFog.No wind100%29.92 "Hg1 mi
3:00 AM68 °FFog.2 mph100%29.92 "Hg1 mi
2:30 AM68 °FSprinkles. Fog.2 mph100%29.92 "Hg1 mi
2:00 AM68 °FSprinkles. Fog.5 mph100%29.92 "Hg1 mi
1:30 AM68 °FSprinkles. Fog.2 mph100%29.92 "Hg2 mi
1:00 AM68 °FSprinkles. Passing clouds.No wind100%29.92 "Hg4 mi
12:30 AM68 °FPassing clouds.2 mph100%29.92 "Hg4 mi
12:00 AM68 °FPassing clouds.1 mph100%29.92 "Hg5 mi
11:30 PM
Jul 31
68 °FPassing clouds.No wind100%29.92 "Hg5 mi
11:00 PM68 °FPassing clouds.2 mph100%29.92 "Hg5 mi
10:30 PM68 °FPassing clouds.3 mph100%29.92 "Hg5 mi
10:00 PM68 °FPassing clouds.2 mph100%29.89 "Hg5 mi
9:30 PM68 °FPassing clouds.3 mph100%29.89 "Hg4 mi
9:00 PM70 °FScattered clouds.No wind94%29.89 "Hg4 mi
8:30 PM70 °FPartly sunny.2 mph94%29.89 "Hg5 mi
8:00 PM70 °FSprinkles. Partly sunny.1 mph94%29.89 "Hg4 mi
7:30 PM70 °FThundershowers. Broken clouds.3 mph94%29.89 "Hg4 mi
7:00 PM72 °FThunderstorms. Partly sunny.3 mph88%29.89 "Hg4 mi
6:30 PM72 °FThunderstorms. Partly sunny.3 mph88%29.89 "HgN/A
6:00 PM73 °FThundershowers. Scattered clouds.9 mph83%29.86 "HgN/A
5:30 PM73 °FScattered clouds.8 mph83%29.86 "HgN/A
5:00 PM73 °FScattered clouds.9 mph83%29.83 "HgN/A
4:30 PM72 °FScattered clouds.7 mph88%29.83 "HgN/A
4:00 PM73 °FThundershowers. Scattered clouds.7 mph78%29.83 "HgN/A
Weather by CustomWeather, © 2014

See weather overviewHow to use our weather pages